JST701 YMML-YMHB

Flight info

Callsign JST701
Flight time N/A
Altitude 37000
Route ML H169 IRSOM V33 TASUM
Aircraft A320/M-SDE3FGHIRWY/LB1

Departure

Time 2026-05-06 16:50
Airport Melbourne Airport (YMML)

Arrival

Time N/A
Airport Hobart International Airport (YMHB)
Time Latitude Longitude Altitude Speed Heading
2026-05-06 16:36 -37.67528 144.84791 379 ft 0 kts 171°
2026-05-06 16:43 -37.67527 144.84791 379 ft 1 kts 171°
2026-05-06 16:43 -37.67503 144.84786 380 ft 3 kts 171°
2026-05-06 16:44 -37.67482 144.84782 381 ft 4 kts 167°
2026-05-06 16:44 -37.67461 144.84768 381 ft 3 kts 123°
2026-05-06 16:44 -37.67447 144.84747 382 ft 4 kts 173°
2026-05-06 16:44 -37.67433 144.84755 382 ft 4 kts 260°
2026-05-06 16:45 -37.67429 144.84787 382 ft 2 kts 262°
2026-05-06 16:45 -37.67429 144.84790 382 ft 2 kts 262°
2026-05-06 16:46 -37.67430 144.84783 382 ft 4 kts 262°
2026-05-06 16:47 -37.67441 144.84681 381 ft 19 kts 261°
2026-05-06 16:47 -37.67465 144.84481 378 ft 18 kts 263°
2026-05-06 16:47 -37.67469 144.84336 376 ft 16 kts 303°
2026-05-06 16:47 -37.67344 144.84296 379 ft 22 kts 351°
2026-05-06 16:48 -37.67185 144.84265 382 ft 24 kts 351°
2026-05-06 16:48 -37.67014 144.84233 386 ft 26 kts 354°
2026-05-06 16:48 -37.66832 144.84200 391 ft 27 kts 352°
2026-05-06 16:48 -37.66652 144.84165 397 ft 26 kts 350°
2026-05-06 16:49 -37.66477 144.84134 405 ft 25 kts 352°
2026-05-06 16:49 -37.66352 144.84109 410 ft 17 kts 351°
2026-05-06 16:49 -37.66233 144.84090 412 ft 17 kts 352°
2026-05-06 16:49 -37.66181 144.84068 409 ft 6 kts 292°
2026-05-06 16:50 -37.66176 144.83944 413 ft 40 kts 273°
2026-05-06 16:50 -37.66133 144.83209 417 ft 122 kts 274°
2026-05-06 16:50 -37.66073 144.82071 1060 ft 134 kts 272°
2026-05-06 16:50 -37.66022 144.81275 1611 ft 141 kts 270°
2026-05-06 16:51 -37.65938 144.79575 2734 ft 152 kts 262°
2026-05-06 16:51 -37.66428 144.78349 3058 ft 172 kts 222°
2026-05-06 16:51 -37.67671 144.77926 3371 ft 210 kts 181°
2026-05-06 16:51 -37.69194 144.78414 3865 ft 239 kts 167°
2026-05-06 16:52 -37.70762 144.79225 4792 ft 246 kts 163°
2026-05-06 16:52 -37.72302 144.80108 5778 ft 248 kts 162°
2026-05-06 16:52 -37.73889 144.81017 6672 ft 253 kts 163°
2026-05-06 16:52 -37.75513 144.81922 7545 ft 257 kts 163°
2026-05-06 16:53 -37.77167 144.82822 8410 ft 261 kts 163°
2026-05-06 16:53 -37.78873 144.83732 9299 ft 264 kts 163°
2026-05-06 16:53 -37.80582 144.84631 10156 ft 268 kts 163°
2026-05-06 16:53 -37.82342 144.85548 10542 ft 288 kts 163°
2026-05-06 16:54 -37.84284 144.86548 10967 ft 304 kts 163°
2026-05-06 16:54 -37.86260 144.87568 11676 ft 309 kts 163°
2026-05-06 16:54 -37.88259 144.88606 12427 ft 313 kts 163°
2026-05-06 16:54 -37.90286 144.89658 13178 ft 317 kts 163°
2026-05-06 16:55 -37.92341 144.90725 13917 ft 321 kts 162°
2026-05-06 16:55 -37.94417 144.91807 14580 ft 325 kts 162°
2026-05-06 16:55 -37.96518 144.92904 15246 ft 328 kts 162°
2026-05-06 16:55 -37.98640 144.94012 15913 ft 331 kts 163°
2026-05-06 16:56 -38.00779 144.95126 16587 ft 334 kts 163°
2026-05-06 16:56 -38.02940 144.96249 17236 ft 337 kts 162°
2026-05-06 16:56 -38.05122 144.97385 17914 ft 340 kts 162°
2026-05-06 16:56 -38.07323 144.98530 18548 ft 344 kts 161°
2026-05-06 16:57 -38.09520 144.99673 19102 ft 348 kts 162°
2026-05-06 16:57 -38.11768 145.00845 19671 ft 352 kts 162°
2026-05-06 16:57 -38.14098 145.02064 20084 ft 361 kts 162°
2026-05-06 16:57 -38.16435 145.03290 20625 ft 366 kts 162°
2026-05-06 16:58 -38.18804 145.04529 21150 ft 370 kts 162°
2026-05-06 16:58 -38.21169 145.05764 21675 ft 375 kts 162°
2026-05-06 16:58 -38.23594 145.07032 22212 ft 379 kts 162°
2026-05-06 16:58 -38.26043 145.08320 22743 ft 383 kts 162°
2026-05-06 16:59 -38.28519 145.09625 23281 ft 387 kts 162°
2026-05-06 16:59 -38.31026 145.10943 23784 ft 392 kts 162°
2026-05-06 16:59 -38.33557 145.12270 24217 ft 395 kts 162°
2026-05-06 16:59 -38.36110 145.13613 24662 ft 399 kts 162°
2026-05-06 17:00 -38.38683 145.14970 25105 ft 401 kts 162°
2026-05-06 17:00 -38.41274 145.16334 25529 ft 405 kts 162°
2026-05-06 17:00 -38.43886 145.17709 25965 ft 408 kts 163°
2026-05-06 17:00 -38.46515 145.19097 26426 ft 409 kts 162°
2026-05-06 17:01 -38.49152 145.20490 26845 ft 412 kts 162°
2026-05-06 17:01 -38.51814 145.21876 27254 ft 414 kts 163°
2026-05-06 17:01 -38.54521 145.23156 27652 ft 416 kts 166°
2026-05-06 17:01 -38.57264 145.24356 28029 ft 418 kts 166°
2026-05-06 17:02 -38.60036 145.25526 28419 ft 421 kts 166°
2026-05-06 17:02 -38.62828 145.26701 28792 ft 424 kts 167°
2026-05-06 17:02 -38.65656 145.27903 29027 ft 431 kts 166°
2026-05-06 17:02 -38.68510 145.29131 29393 ft 434 kts 166°
2026-05-06 17:03 -38.71382 145.30386 29772 ft 437 kts 166°
2026-05-06 17:03 -38.74266 145.31664 30151 ft 440 kts 165°
2026-05-06 17:03 -38.77170 145.32957 30446 ft 443 kts 165°
2026-05-06 17:03 -38.80093 145.34259 30737 ft 446 kts 166°
2026-05-06 17:04 -38.83034 145.35564 31028 ft 449 kts 166°
2026-05-06 17:04 -38.85989 145.36874 31302 ft 451 kts 165°
2026-05-06 17:04 -38.87962 145.37748 31496 ft 453 kts 166°
2026-05-06 17:04 -38.90934 145.39068 31953 ft 451 kts 165°
2026-05-06 17:05 -38.93895 145.40382 32408 ft 450 kts 165°
2026-05-06 17:05 -38.96853 145.41695 32821 ft 450 kts 166°
2026-05-06 17:05 -38.99809 145.43015 33227 ft 450 kts 166°
2026-05-06 17:05 -39.03728 145.44761 33745 ft 450 kts 165°
2026-05-06 17:06 -39.05731 145.45656 33968 ft 451 kts 164°
2026-05-06 17:06 -39.11667 145.48315 34061 ft 452 kts 166°
2026-05-06 17:07 -39.17598 145.50973 34052 ft 451 kts 166°
2026-05-06 17:07 -39.23537 145.53625 34049 ft 454 kts 166°
2026-05-06 17:08 -39.29509 145.56298 34049 ft 455 kts 165°
2026-05-06 17:08 -39.35487 145.58988 34040 ft 455 kts 164°
2026-05-06 17:09 -39.41460 145.61687 34037 ft 455 kts 166°
2026-05-06 17:09 -39.47435 145.64392 34039 ft 454 kts 165°
2026-05-06 17:10 -39.53406 145.67090 34034 ft 455 kts 165°
2026-05-06 17:10 -39.59370 145.69782 34023 ft 453 kts 166°
2026-05-06 17:11 -39.65330 145.72484 34022 ft 455 kts 164°
2026-05-06 17:11 -39.71326 145.75216 34021 ft 458 kts 165°
2026-05-06 17:12 -39.77340 145.77966 34007 ft 458 kts 165°
2026-05-06 17:12 -39.83321 145.80691 34006 ft 453 kts 166°
2026-05-06 17:13 -39.89256 145.83390 34002 ft 457 kts 164°
2026-05-06 17:13 -39.95296 145.86153 34003 ft 457 kts 164°
2026-05-06 17:14 -40.01259 145.88899 34001 ft 456 kts 164°
2026-05-06 17:14 -40.07203 145.91644 33992 ft 453 kts 166°
2026-05-06 17:15 -40.13173 145.94399 33992 ft 456 kts 164°
2026-05-06 17:15 -40.19151 145.97185 33998 ft 456 kts 163°
2026-05-06 17:16 -40.25127 145.99988 33987 ft 454 kts 164°
2026-05-06 17:16 -40.31060 146.02755 33986 ft 452 kts 164°
2026-05-06 17:17 -40.36989 146.05513 33991 ft 452 kts 165°
2026-05-06 17:17 -40.42907 146.08291 33981 ft 452 kts 165°
2026-05-06 17:18 -40.48811 146.11059 33980 ft 448 kts 164°
2026-05-06 17:18 -40.54695 146.13817 33981 ft 450 kts 165°
2026-05-06 17:19 -40.60596 146.16603 33966 ft 450 kts 164°
2026-05-06 17:19 -40.66494 146.19392 33966 ft 450 kts 164°
2026-05-06 17:20 -40.72380 146.22178 33968 ft 449 kts 164°
2026-05-06 17:20 -40.78269 146.24961 33961 ft 450 kts 163°
2026-05-06 17:21 -40.84161 146.27754 33958 ft 450 kts 163°
2026-05-06 17:21 -40.90045 146.30556 33958 ft 450 kts 164°
2026-05-06 17:22 -40.95899 146.33335 33882 ft 438 kts 163°
2026-05-06 17:22 -40.98739 146.34685 33563 ft 431 kts 163°
2026-05-06 17:22 -41.01542 146.36019 33163 ft 426 kts 163°
2026-05-06 17:22 -41.04312 146.37339 32756 ft 421 kts 163°
2026-05-06 17:23 -41.07055 146.38655 32351 ft 417 kts 163°
2026-05-06 17:23 -41.09771 146.39960 31947 ft 413 kts 163°
2026-05-06 17:23 -41.12460 146.41253 31564 ft 409 kts 163°
2026-05-06 17:23 -41.15137 146.42536 30894 ft 413 kts 163°
2026-05-06 17:24 -41.17838 146.43937 29511 ft 434 kts 158°
2026-05-06 17:24 -41.20631 146.45677 27714 ft 454 kts 158°
2026-05-06 17:24 -41.23543 146.47503 26070 ft 469 kts 157°
2026-05-06 17:24 -41.26516 146.49378 24691 ft 475 kts 157°
2026-05-06 17:25 -41.29500 146.51270 23715 ft 474 kts 157°
2026-05-06 17:25 -41.32465 146.53155 23462 ft 472 kts 157°
2026-05-06 17:25 -41.35429 146.55039 23318 ft 474 kts 157°
2026-05-06 17:25 -41.38417 146.56938 23171 ft 477 kts 157°
2026-05-06 17:26 -41.41417 146.58837 23034 ft 475 kts 157°
2026-05-06 17:26 -41.44382 146.60711 22884 ft 469 kts 157°
2026-05-06 17:26 -41.47322 146.62571 22741 ft 467 kts 157°
2026-05-06 17:26 -41.50245 146.64425 22597 ft 465 kts 157°
2026-05-06 17:27 -41.53165 146.66285 22457 ft 464 kts 157°
2026-05-06 17:27 -41.56076 146.68141 22317 ft 466 kts 156°
2026-05-06 17:27 -41.59012 146.70011 22174 ft 469 kts 156°
2026-05-06 17:27 -41.61958 146.71886 22037 ft 469 kts 156°
2026-05-06 17:28 -41.64898 146.73759 21901 ft 468 kts 156°
2026-05-06 17:28 -41.67829 146.75637 21755 ft 466 kts 156°
2026-05-06 17:28 -41.70749 146.77521 21625 ft 465 kts 156°
2026-05-06 17:28 -41.73653 146.79403 21487 ft 464 kts 156°
2026-05-06 17:29 -41.76553 146.81286 21346 ft 464 kts 156°
2026-05-06 17:29 -41.79467 146.83178 21211 ft 465 kts 156°
2026-05-06 17:29 -41.82340 146.85044 21080 ft 465 kts 156°
2026-05-06 17:29 -41.85247 146.86934 20944 ft 463 kts 156°
2026-05-06 17:30 -41.88142 146.88814 20809 ft 462 kts 156°
2026-05-06 17:30 -41.91030 146.90687 20683 ft 460 kts 157°
2026-05-06 17:30 -41.93916 146.92562 20539 ft 460 kts 158°
2026-05-06 17:30 -41.96800 146.94436 20408 ft 460 kts 156°
2026-05-06 17:31 -41.99672 146.96307 20279 ft 459 kts 156°
2026-05-06 17:31 -42.02539 146.98184 20152 ft 458 kts 156°
2026-05-06 17:31 -42.05400 147.00059 20013 ft 456 kts 157°
2026-05-06 17:31 -42.08252 147.01928 19888 ft 455 kts 155°
2026-05-06 17:32 -42.11082 147.03783 19343 ft 450 kts 156°
2026-05-06 17:32 -42.13887 147.05623 18416 ft 445 kts 156°
2026-05-06 17:32 -42.16654 147.07384 17532 ft 435 kts 160°
2026-05-06 17:32 -42.19489 147.08546 17096 ft 415 kts 169°
2026-05-06 17:33 -42.22218 147.09457 16962 ft 395 kts 168°
2026-05-06 17:33 -42.24823 147.10349 16589 ft 382 kts 168°
2026-05-06 17:33 -42.27392 147.11238 15946 ft 380 kts 168°
2026-05-06 17:33 -42.29942 147.12120 15329 ft 377 kts 168°
2026-05-06 17:34 -42.32467 147.12993 14744 ft 372 kts 168°
2026-05-06 17:34 -42.34963 147.13855 14143 ft 368 kts 168°
2026-05-06 17:34 -42.37473 147.14714 12965 ft 378 kts 168°
2026-05-06 17:34 -42.40024 147.15585 12133 ft 377 kts 168°
2026-05-06 17:35 -42.42558 147.16453 11434 ft 373 kts 168°
2026-05-06 17:35 -42.45023 147.17301 10354 ft 361 kts 168°
2026-05-06 17:35 -42.47431 147.18131 9018 ft 354 kts 168°
2026-05-06 17:36 -42.52084 147.19741 6452 ft 337 kts 168°
2026-05-06 17:36 -42.54326 147.20517 5364 ft 325 kts 169°
2026-05-06 17:36 -42.56430 147.21249 5074 ft 302 kts 169°
2026-05-06 17:36 -42.58416 147.21937 4929 ft 287 kts 169°
2026-05-06 17:37 -42.60306 147.22607 4805 ft 276 kts 167°
2026-05-06 17:37 -42.61976 147.23822 4674 ft 273 kts 146°
2026-05-06 17:37 -42.63383 147.25499 4538 ft 265 kts 144°
2026-05-06 17:37 -42.64734 147.27135 4391 ft 256 kts 144°
2026-05-06 17:38 -42.66041 147.28719 4273 ft 247 kts 143°
2026-05-06 17:38 -42.67301 147.30247 4180 ft 238 kts 144°
2026-05-06 17:38 -42.68532 147.31738 3927 ft 236 kts 144°
2026-05-06 17:38 -42.69744 147.33205 3656 ft 229 kts 143°
2026-05-06 17:39 -42.70889 147.34598 3526 ft 213 kts 144°
2026-05-06 17:39 -42.71971 147.35916 3335 ft 208 kts 144°
2026-05-06 17:39 -42.73087 147.37188 2890 ft 209 kts 147°
2026-05-06 17:39 -42.74166 147.38450 2540 ft 200 kts 142°
2026-05-06 17:40 -42.75138 147.39717 2290 ft 187 kts 141°
2026-05-06 17:40 -42.76033 147.40916 2004 ft 173 kts 140°
2026-05-06 17:40 -42.76854 147.42025 1772 ft 160 kts 140°
2026-05-06 17:40 -42.77617 147.43055 1548 ft 150 kts 140°
2026-05-06 17:41 -42.78348 147.44043 1343 ft 147 kts 138°
2026-05-06 17:41 -42.79067 147.45026 1131 ft 146 kts 138°
2026-05-06 17:41 -42.79784 147.46009 924 ft 146 kts 139°
2026-05-06 17:41 -42.80500 147.46976 730 ft 145 kts 140°
2026-05-06 17:42 -42.81212 147.47919 481 ft 141 kts 139°
2026-05-06 17:42 -42.81899 147.48862 296 ft 139 kts 140°
2026-05-06 17:42 -42.82582 147.49783 152 ft 136 kts 141°
2026-05-06 17:42 -42.83247 147.50676 25 ft 125 kts 135°
2026-05-06 17:43 -42.83933 147.51606 51 ft 166 kts 138°
2026-05-06 17:43 -42.84712 147.52763 843 ft 171 kts 136°
2026-05-06 17:43 -42.85496 147.54024 1755 ft 177 kts 135°
2026-05-06 17:43 -42.86387 147.55332 2008 ft 197 kts 152°
2026-05-06 17:44 -42.87675 147.55816 2594 ft 193 kts 191°
2026-05-06 17:44 -42.88847 147.55096 3483 ft 185 kts 224°
2026-05-06 17:44 -42.89522 147.53594 4153 ft 192 kts 254°
2026-05-06 17:44 -42.89436 147.51751 5005 ft 205 kts 286°
2026-05-06 17:45 -42.88504 147.50205 5724 ft 226 kts 324°
2026-05-06 17:45 -42.87059 147.49266 6515 ft 232 kts 332°
2026-05-06 17:45 -42.85520 147.48341 6988 ft 254 kts 332°
2026-05-06 17:45 -42.83831 147.47317 7419 ft 277 kts 332°
2026-05-06 17:46 -42.82024 147.46230 8116 ft 288 kts 333°
2026-05-06 17:46 -42.80174 147.45124 9029 ft 292 kts 333°
2026-05-06 17:46 -42.78304 147.44007 9951 ft 294 kts 333°
2026-05-06 17:46 -42.76391 147.42858 10349 ft 316 kts 333°
2026-05-06 17:47 -42.74303 147.41601 10606 ft 340 kts 333°
2026-05-06 17:47 -42.72065 147.40256 10799 ft 363 kts 333°
2026-05-06 17:47 -42.69680 147.38827 10989 ft 385 kts 334°
2026-05-06 17:47 -42.67205 147.37350 11561 ft 392 kts 334°
2026-05-06 17:48 -42.64691 147.35855 12230 ft 396 kts 334°
2026-05-06 17:48 -42.62152 147.34351 12946 ft 400 kts 334°
2026-05-06 17:48 -42.59593 147.32836 13662 ft 403 kts 334°
2026-05-06 17:48 -42.57018 147.31308 14340 ft 405 kts 334°
2026-05-06 17:49 -42.54428 147.29769 15003 ft 407 kts 334°
2026-05-06 17:49 -42.51827 147.28222 15665 ft 410 kts 334°
2026-05-06 17:49 -42.49207 147.26665 16304 ft 412 kts 334°
2026-05-06 17:49 -42.46578 147.25101 16927 ft 414 kts 334°
2026-05-06 17:50 -42.43933 147.23529 17546 ft 416 kts 335°
2026-05-06 17:50 -42.41274 147.21958 18146 ft 419 kts 333°
2026-05-06 17:50 -42.38597 147.20378 18653 ft 421 kts 334°
2026-05-06 17:50 -42.35909 147.18792 19180 ft 422 kts 335°
2026-05-06 17:51 -42.33211 147.17208 19734 ft 423 kts 335°
2026-05-06 17:51 -42.31388 147.16140 20095 ft 423 kts 334°
2026-05-06 17:51 -42.28685 147.14557 20612 ft 424 kts 335°
2026-05-06 17:51 -42.25974 147.12964 21070 ft 425 kts 334°
2026-05-06 17:52 -42.23260 147.11361 21505 ft 427 kts 335°
2026-05-06 17:52 -42.20531 147.09747 21894 ft 429 kts 335°
2026-05-06 17:52 -42.17795 147.08136 22267 ft 430 kts 335°
2026-05-06 17:52 -42.15010 147.06584 22579 ft 434 kts 336°
2026-05-06 17:53 -42.12179 147.05143 22958 ft 437 kts 338°
2026-05-06 17:53 -42.09308 147.03770 23323 ft 439 kts 339°
2026-05-06 17:53 -42.06414 147.02424 23643 ft 441 kts 339°
2026-05-06 17:53 -42.03506 147.01072 23908 ft 443 kts 339°
2026-05-06 17:54 -42.00589 146.99699 24158 ft 445 kts 339°
2026-05-06 17:54 -41.97667 146.98298 24422 ft 447 kts 338°
2026-05-06 17:54 -41.94732 146.96871 24678 ft 449 kts 338°
2026-05-06 17:54 -41.91782 146.95424 24826 ft 454 kts 338°
2026-05-06 17:55 -41.88806 146.93963 25046 ft 456 kts 338°
2026-05-06 17:55 -41.85817 146.92502 25266 ft 458 kts 338°
2026-05-06 17:55 -41.82816 146.91044 25452 ft 460 kts 338°
2026-05-06 17:55 -41.79804 146.89588 25639 ft 461 kts 338°
2026-05-06 17:56 -41.76816 146.88151 25812 ft 463 kts 338°
2026-05-06 17:56 -41.73784 146.86699 26043 ft 463 kts 338°
2026-05-06 17:56 -41.70753 146.85247 26285 ft 464 kts 338°
2026-05-06 17:56 -41.67700 146.83782 26420 ft 469 kts 338°
2026-05-06 17:57 -41.64618 146.82295 26563 ft 472 kts 338°
2026-05-06 17:57 -41.61523 146.80801 26770 ft 473 kts 338°
2026-05-06 17:57 -41.58423 146.79306 27020 ft 474 kts 338°
2026-05-06 17:57 -41.55320 146.77816 27291 ft 474 kts 338°
2026-05-06 17:58 -41.52217 146.76329 27570 ft 474 kts 338°
2026-05-06 17:58 -41.49114 146.74843 27858 ft 474 kts 338°
2026-05-06 17:58 -41.45998 146.73351 28038 ft 479 kts 338°
2026-05-06 17:58 -41.42848 146.71848 28241 ft 481 kts 338°
2026-05-06 17:59 -41.39710 146.70355 28632 ft 478 kts 338°
2026-05-06 17:59 -41.36580 146.68864 28987 ft 477 kts 338°
2026-05-06 17:59 -41.33458 146.67374 29321 ft 477 kts 338°
2026-05-06 17:59 -41.30334 146.65885 29655 ft 477 kts 338°
2026-05-06 18:00 -41.27207 146.64403 29984 ft 477 kts 338°
2026-05-06 18:00 -41.24074 146.62919 30185 ft 480 kts 338°
2026-05-06 18:00 -41.20920 146.61423 30365 ft 483 kts 338°
2026-05-06 18:00 -41.17769 146.59930 30773 ft 477 kts 338°
2026-05-06 18:01 -41.14656 146.58459 31166 ft 474 kts 338°
2026-05-06 18:01 -41.11550 146.56993 31500 ft 473 kts 338°
2026-05-06 18:01 -41.08458 146.55533 31825 ft 472 kts 338°
2026-05-06 18:01 -41.05369 146.54072 32145 ft 471 kts 338°
2026-05-06 18:02 -41.02279 146.52613 32382 ft 473 kts 337°
2026-05-06 18:02 -40.99166 146.51146 32571 ft 476 kts 338°
2026-05-06 18:02 -40.96045 146.49678 32873 ft 475 kts 338°
2026-05-06 18:02 -40.92942 146.48226 33277 ft 472 kts 336°
2026-05-06 18:03 -40.89851 146.46782 33658 ft 470 kts 337°
2026-05-06 18:03 -40.86776 146.45342 33988 ft 469 kts 337°
2026-05-06 18:03 -40.83704 146.43904 34273 ft 468 kts 336°
2026-05-06 18:03 -40.80636 146.42464 34535 ft 469 kts 338°
2026-05-06 18:04 -40.77557 146.41020 34721 ft 471 kts 336°
2026-05-06 18:04 -40.74467 146.39573 34980 ft 471 kts 338°
2026-05-06 18:04 -40.71384 146.38134 35340 ft 468 kts 336°
2026-05-06 18:04 -40.68322 146.36705 35669 ft 466 kts 337°
2026-05-06 18:05 -40.65269 146.35280 35961 ft 465 kts 337°
2026-05-06 18:05 -40.62225 146.33859 36242 ft 464 kts 336°
2026-05-06 18:05 -40.59181 146.32445 36443 ft 465 kts 336°
2026-05-06 18:05 -40.56126 146.31034 36627 ft 466 kts 336°
2026-05-06 18:06 -40.53065 146.29622 36835 ft 466 kts 337°
2026-05-06 18:06 -40.50009 146.28209 37066 ft 465 kts 337°
2026-05-06 18:06 -40.46967 146.26802 37358 ft 463 kts 336°
2026-05-06 18:06 -40.43936 146.25397 37595 ft 462 kts 336°
2026-05-06 18:07 -40.40910 146.23993 37815 ft 461 kts 336°
2026-05-06 18:07 -40.37926 146.22608 37951 ft 462 kts 336°
2026-05-06 18:07 -40.31854 146.19801 37977 ft 463 kts 336°
2026-05-06 18:08 -40.25777 146.17003 37992 ft 462 kts 336°
2026-05-06 18:08 -40.19711 146.14225 37991 ft 462 kts 337°
2026-05-06 18:09 -40.13644 146.11450 37988 ft 462 kts 336°
2026-05-06 18:09 -40.07579 146.08677 38000 ft 462 kts 337°
2026-05-06 18:10 -40.01516 146.05907 38007 ft 461 kts 337°
2026-05-06 18:10 -39.95457 146.03140 38011 ft 461 kts 336°
2026-05-06 18:11 -39.89395 146.00373 38009 ft 462 kts 336°
2026-05-06 18:11 -39.83323 145.97617 38005 ft 462 kts 336°
2026-05-06 18:12 -39.77245 145.94872 38018 ft 462 kts 337°
2026-05-06 18:12 -39.71172 145.92119 38015 ft 462 kts 336°
2026-05-06 18:13 -39.65088 145.89369 38026 ft 463 kts 336°
2026-05-06 18:13 -39.59002 145.86628 38020 ft 463 kts 336°
2026-05-06 18:14 -39.52914 145.83888 38028 ft 463 kts 336°
2026-05-06 18:14 -39.46817 145.81155 38033 ft 464 kts 336°
2026-05-06 18:15 -39.43768 145.79788 37911 ft 463 kts 336°
2026-05-06 18:15 -39.40725 145.78424 37721 ft 463 kts 336°
2026-05-06 18:15 -39.37676 145.77058 37545 ft 465 kts 336°
2026-05-06 18:15 -39.34619 145.75686 37369 ft 466 kts 336°
2026-05-06 18:16 -39.31557 145.74312 37192 ft 466 kts 336°
2026-05-06 18:16 -39.28490 145.72939 37016 ft 467 kts 337°
2026-05-06 18:16 -39.25419 145.71573 36845 ft 467 kts 336°
2026-05-06 18:16 -39.22341 145.70202 36671 ft 468 kts 336°
2026-05-06 18:17 -39.19262 145.68834 36500 ft 468 kts 337°
2026-05-06 18:17 -39.16183 145.67469 36318 ft 469 kts 337°
2026-05-06 18:17 -39.13098 145.66104 36149 ft 468 kts 336°
2026-05-06 18:17 -39.10016 145.64737 35981 ft 469 kts 337°
2026-05-06 18:18 -39.06931 145.63368 35821 ft 469 kts 336°
2026-05-06 18:18 -39.03848 145.61999 35656 ft 469 kts 336°
2026-05-06 18:18 -39.00758 145.60628 35492 ft 470 kts 336°
2026-05-06 18:18 -38.97666 145.59258 35330 ft 470 kts 336°
2026-05-06 18:19 -38.94572 145.57884 35163 ft 470 kts 336°
2026-05-06 18:19 -38.91485 145.56518 34786 ft 469 kts 337°
2026-05-06 18:19 -38.88379 145.55150 33773 ft 474 kts 336°
2026-05-06 18:19 -38.85257 145.53777 32799 ft 475 kts 336°
2026-05-06 18:20 -38.82124 145.52403 31788 ft 477 kts 336°
2026-05-06 18:20 -38.78970 145.51017 30813 ft 481 kts 336°
2026-05-06 18:20 -38.75793 145.49615 29636 ft 486 kts 337°
2026-05-06 18:20 -38.72586 145.48203 28371 ft 488 kts 337°
2026-05-06 18:21 -38.69370 145.46792 27200 ft 488 kts 337°
2026-05-06 18:21 -38.66155 145.45384 25884 ft 489 kts 337°
2026-05-06 18:21 -38.62936 145.43977 24627 ft 489 kts 337°
2026-05-06 18:21 -38.59716 145.42575 23353 ft 488 kts 337°
2026-05-06 18:22 -38.56529 145.41186 22325 ft 478 kts 337°
2026-05-06 18:22 -38.53415 145.39830 21206 ft 470 kts 338°
2026-05-06 18:22 -38.50385 145.38514 20130 ft 451 kts 336°
2026-05-06 18:22 -38.47439 145.37232 19230 ft 444 kts 337°
2026-05-06 18:23 -38.44533 145.35967 18303 ft 439 kts 337°
2026-05-06 18:23 -38.41692 145.34732 17315 ft 434 kts 337°
2026-05-06 18:23 -38.38854 145.33498 16415 ft 428 kts 337°
2026-05-06 18:23 -38.36057 145.32283 15519 ft 423 kts 337°
2026-05-06 18:24 -38.33284 145.31079 14651 ft 419 kts 337°
2026-05-06 18:24 -38.30530 145.29881 13817 ft 417 kts 337°
2026-05-06 18:24 -38.27800 145.28690 12964 ft 413 kts 337°
2026-05-06 18:24 -38.25093 145.27514 12208 ft 408 kts 337°
2026-05-06 18:25 -38.22422 145.26359 11461 ft 403 kts 337°
2026-05-06 18:25 -38.19819 145.25237 11242 ft 384 kts 337°
2026-05-06 18:25 -38.17338 145.24173 11120 ft 376 kts 336°
2026-05-06 18:25 -38.14843 145.23093 10991 ft 380 kts 336°
2026-05-06 18:26 -38.12335 145.22007 10863 ft 381 kts 336°
2026-05-06 18:26 -38.09844 145.20929 10733 ft 371 kts 336°
2026-05-06 18:26 -38.07459 145.19906 10609 ft 353 kts 336°
2026-05-06 18:26 -38.05187 145.18937 10483 ft 337 kts 336°
2026-05-06 18:27 -38.03010 145.18007 10345 ft 324 kts 336°
2026-05-06 18:27 -38.00915 145.17110 10226 ft 312 kts 335°
2026-05-06 18:27 -37.98894 145.16242 10107 ft 303 kts 335°
2026-05-06 18:27 -37.96909 145.15386 9974 ft 301 kts 335°
2026-05-06 18:28 -37.94932 145.14529 9842 ft 300 kts 335°
2026-05-06 18:28 -37.92961 145.13675 9702 ft 299 kts 335°
2026-05-06 18:28 -37.90990 145.12826 9575 ft 299 kts 335°
2026-05-06 18:28 -37.89020 145.11982 9447 ft 298 kts 335°
2026-05-06 18:29 -37.87054 145.11141 9299 ft 298 kts 335°
2026-05-06 18:29 -37.85096 145.10303 9115 ft 296 kts 335°
2026-05-06 18:29 -37.83121 145.09457 8024 ft 302 kts 335°
2026-05-06 18:29 -37.81131 145.08608 6713 ft 302 kts 335°
2026-05-06 18:30 -37.79187 145.07785 6053 ft 281 kts 335°
2026-05-06 18:30 -37.77427 145.07053 5771 ft 252 kts 334°
2026-05-06 18:30 -37.75820 145.06380 5415 ft 236 kts 334°
2026-05-06 18:30 -37.74315 145.05744 5270 ft 220 kts 333°
2026-05-06 18:31 -37.72891 145.05137 4867 ft 215 kts 333°
2026-05-06 18:31 -37.71482 145.04528 4411 ft 213 kts 333°
2026-05-06 18:31 -37.70092 145.03931 3975 ft 210 kts 332°
2026-05-06 18:31 -37.68760 145.03311 3718 ft 198 kts 323°
2026-05-06 18:32 -37.67733 145.02240 3294 ft 186 kts 298°
2026-05-06 18:32 -37.67194 145.00849 3039 ft 169 kts 276°
2026-05-06 18:32 -37.67062 144.99436 2810 ft 158 kts 267°
2026-05-06 18:32 -37.66985 144.98081 2599 ft 152 kts 267°
2026-05-06 18:33 -37.66912 144.96773 2377 ft 147 kts 266°
2026-05-06 18:33 -37.66850 144.95501 2143 ft 143 kts 266°
2026-05-06 18:33 -37.66820 144.94284 1945 ft 133 kts 265°
2026-05-06 18:33 -37.66767 144.93154 1771 ft 126 kts 266°
2026-05-06 18:34 -37.66689 144.92062 1622 ft 124 kts 269°
2026-05-06 18:34 -37.66616 144.90997 1466 ft 123 kts 269°
2026-05-06 18:34 -37.66526 144.89932 1332 ft 118 kts 270°
2026-05-06 18:34 -37.66469 144.88906 1178 ft 120 kts 271°
2026-05-06 18:35 -37.66409 144.87874 979 ft 117 kts 272°
2026-05-06 18:35 -37.66345 144.86848 798 ft 117 kts 273°
2026-05-06 18:35 -37.66289 144.85829 645 ft 117 kts 274°
2026-05-06 18:35 -37.66227 144.84814 470 ft 116 kts 275°
2026-05-06 18:36 -37.66171 144.83856 413 ft 91 kts 274°
2026-05-06 18:36 -37.66145 144.83413 414 ft 28 kts 274°
2026-05-06 18:36 -37.66134 144.83142 412 ft 36 kts 271°
2026-05-06 18:36 -37.66173 144.82923 406 ft 40 kts 246°
2026-05-06 18:37 -37.66306 144.82688 390 ft 26 kts 194°
2026-05-06 18:37 -37.66444 144.82821 385 ft 29 kts 94°
2026-05-06 18:37 -37.66462 144.83067 393 ft 28 kts 94°
2026-05-06 18:37 -37.66476 144.83313 401 ft 29 kts 94°